Weather History for Osijek - Cepin, Croatia

Change the Weather History Date:

Thursday, April 25, 2013

  Actual Average Record
Temperature  
Mean Temperature 66 °F -  
Max Temperature 82 °F - - ()
Min Temperature 50 °F - - ()
Cooling Degree Days 1    
Growing Degree Days 16 (Base 50)    
Moisture  
Dew Point 49 °F    
Average Humidity 57    
Maximum Humidity 94    
Minimum Humidity 28    
Precipitation  
Precipitation 0.00 in - - ()
Sea Level Pressure  
Sea Level Pressure 30.24 in    
Wind  
Wind Speed 3 mph ()    
Max Wind Speed 10 mph    
Max Gust Speed -    
T = Trace of Precipitation, MM = Missing Value Source: Averaged Metar Reports

Daily Weather History Graph

Daily Weather History Graph

Search for Another Location

Airport:

Trip Planner

Search our weather history database for the weather conditions in past years. The results will help you decide how hot, cold, wet, or windy it might be!

Date:

Astronomy

Apr. 25, 2013 Rise Set
Actual Time 5:42 AM CEST 7:43 PM CEST
Civil Twilight 5:10 AM CEST 8:15 PM CEST
Nautical Twilight 4:31 AM CEST 8:55 PM CEST
Astronomical Twilight 3:47 AM CEST 9:39 PM CEST
Moon 7:36 PM CEST (4/25) 5:14 AM CEST (4/25)
Length of Visible Light 15h 05m
Length of Day
14h 01m
Full, 100% of the Moon is Illuminated
Apr 25
Full
Apr 25
Full
May 2
Last Quarter
May 10
New
May 18
First Quarter

Hourly Weather History & Observations

Time (CEST) Temp. Dew Point Humidity Pressure Visibility Wind Dir Wind Speed Gust Speed Precip Events Conditions
12:00 AM 59.0 °F 46.4 °F 63% 30.30 in - SE 4.6 mph - N/A   Clear
12:30 AM 59.0 °F 46.4 °F 63% 30.30 in - West 5.8 mph - N/A   Clear
1:00 AM 57.2 °F 48.2 °F 72% 30.30 in - Calm Calm - N/A   Clear
1:30 AM 57.2 °F 48.2 °F 72% 30.30 in - Calm Calm - N/A   Clear
2:00 AM 55.4 °F 48.2 °F 77% 30.30 in - SE 1.2 mph - N/A   Clear
2:30 AM 55.4 °F 48.2 °F 77% 30.30 in - Calm Calm - N/A   Clear
3:00 AM 55.4 °F 48.2 °F 77% 30.27 in - Calm Calm - N/A   Clear
3:30 AM 55.4 °F 48.2 °F 77% 30.27 in - Calm Calm - N/A   Clear
4:00 AM 55.4 °F 48.2 °F 77% 30.27 in - Calm Calm - N/A   Clear
5:00 AM 50.0 °F 48.2 °F 94% 30.27 in - Calm Calm - N/A   Clear
5:30 AM 50.0 °F 48.2 °F 94% 30.27 in - Calm Calm - N/A   Clear
6:00 AM 50.0 °F 48.2 °F 94% 30.27 in - Calm Calm - N/A   Clear
6:30 AM 50.0 °F 48.2 °F 94% 30.27 in - Calm Calm - N/A   Clear
7:00 AM 51.8 °F 50.0 °F 94% 30.30 in - Calm Calm - N/A   Clear
7:30 AM 51.8 °F 50.0 °F 94% 30.30 in - Calm Calm - N/A   Clear
8:00 AM 57.2 °F 53.6 °F 88% 30.30 in - Calm Calm - N/A   Clear
8:30 AM 60.8 °F 55.4 °F 82% 30.30 in - WSW 5.8 mph - N/A   Clear
9:00 AM 62.6 °F 55.4 °F 77% 30.30 in - WNW 5.8 mph - N/A   Clear
9:30 AM 66.2 °F 53.6 °F 64% 30.30 in - WNW 4.6 mph - N/A   Clear
10:00 AM 68.0 °F 51.8 °F 56% 30.30 in - Variable 3.5 mph - N/A   Clear
10:30 AM 71.6 °F 50.0 °F 46% 30.30 in - Calm Calm - N/A   Clear
11:00 AM 73.4 °F 48.2 °F 41% 30.30 in - Variable 3.5 mph - N/A   Clear
11:30 AM 75.2 °F 48.2 °F 38% 30.30 in - Calm Calm - N/A   Clear
12:00 PM 77.0 °F 48.2 °F 36% 30.27 in - Variable 2.3 mph - N/A   Clear
12:30 PM 77.0 °F 46.4 °F 34% 30.27 in - West 4.6 mph - N/A   Clear
1:00 PM 77.0 °F 46.4 °F 34% 30.24 in - Variable 2.3 mph - N/A   Clear
1:30 PM 78.8 °F 46.4 °F 32% 30.24 in - Variable 4.6 mph - N/A   Clear
2:00 PM 78.8 °F 46.4 °F 32% 30.24 in - WNW 8.1 mph - N/A   Clear
2:30 PM 78.8 °F 46.4 °F 32% 30.21 in - WNW 6.9 mph - N/A   Clear
3:00 PM 80.6 °F 46.4 °F 30% 30.21 in - NNW 4.6 mph - N/A   Clear
3:30 PM 80.6 °F 46.4 °F 30% 30.21 in - NW 8.1 mph - N/A   Clear
4:00 PM 80.6 °F 46.4 °F 30% 30.18 in - NW 6.9 mph - N/A   Clear
4:30 PM 82.4 °F 46.4 °F 28% 30.18 in - NW 8.1 mph - N/A   Clear
5:00 PM 82.4 °F 46.4 °F 28% 30.18 in - NNW 4.6 mph - N/A   Clear
5:30 PM 82.4 °F 46.4 °F 28% 30.18 in - NNW 6.9 mph - N/A   Clear
6:00 PM 80.6 °F 48.2 °F 32% 30.18 in - North 6.9 mph - N/A   Clear
6:30 PM 80.6 °F 48.2 °F 32% 30.18 in - North 6.9 mph - N/A   Clear
7:00 PM 77.0 °F 51.8 °F 41% 30.15 in - North 9.2 mph - N/A   Clear
7:30 PM 73.4 °F 50.0 °F 44% 30.15 in - North 10.4 mph - N/A   Clear
8:00 PM 71.6 °F 48.2 °F 43% 30.15 in - North 9.2 mph - N/A   Clear
8:30 PM 69.8 °F 50.0 °F 49% 30.15 in - North 6.9 mph - N/A   Clear
9:00 PM 68.0 °F 48.2 °F 49% 30.15 in - Calm Calm - N/A   Clear
9:30 PM 68.0 °F 50.0 °F 52% 30.18 in - Calm Calm - N/A   Clear
10:00 PM 66.2 °F 48.2 °F 52% 30.18 in - Calm Calm - N/A   Clear
10:30 PM 64.4 °F 48.2 °F 56% 30.18 in - Calm Calm - N/A   Clear
11:00 PM 62.6 °F 50.0 °F 63% 30.18 in - Calm Calm - N/A   Clear
11:30 PM 62.6 °F 51.8 °F 68% 30.18 in - Calm Calm - N/A   Clear